IN3XSV Weather Reports


time (UTC)temp
C
wind
direction
speed
KPH
gust
KPH
rain 1hr
cm
rain 24hr
cm
rain mn
cm
humidity
%
barometer
mb
20260502195847 15 247 0.0 0.0 0.00 0.00 0.00 50 1014.5
20260502195347 15 225 0.0 0.0 0.00 0.00 0.00 50 1014.4
20260502194847 15 225 0.0 0.0 0.00 0.00 0.00 49 1014.3
20260502194347 15 225 0.0 0.0 0.00 0.00 0.00 47 1014.2
20260502193847 15 157 0.0 0.0 0.00 0.00 0.00 47 1014.1
20260502193347 16 180 0.0 0.0 0.00 0.00 0.00 46 1014.1
20260502192847 16 202 0.0 0.0 0.00 0.00 0.00 46 1014.1
20260502192347 16 202 0.0 0.0 0.00 0.00 0.00 45 1014.0
20260502191847 16 157 0.0 0.0 0.00 0.00 0.00 45 1014.0
20260502191347 17 67 0.0 0.0 0.00 0.00 0.00 45 1013.9
20260502190847 17 112 0.0 0.0 0.00 0.00 0.00 44 1013.9
20260502190347 17 90 0.0 0.0 0.00 0.00 0.00 43 1013.7
20260502185847 18 157 0.0 0.0 0.00 0.00 0.00 42 1013.7
20260502185347 18 135 0.0 1.6 0.00 0.00 0.00 42 1013.6
20260502184848 18 135 3.2 3.2 0.00 0.00 0.00 42 1013.6
20260502184348 18 202 0.0 0.0 0.00 0.00 0.00 42 1013.6
20260502183848 18 202 0.0 4.8 0.00 0.00 0.00 42 1013.5
20260502183348 18 135 0.0 0.0 0.00 0.00 0.00 42 1013.4
20260502182848 18 180 0.0 0.0 0.00 0.00 0.00 41 1013.4
20260502182348 18 45 0.0 0.0 0.00 0.00 0.00 41 1013.1
20260502181848 18 180 0.0 0.0 0.00 0.00 0.00 40 1013.2
20260502181348 19 247 0.0 0.0 0.00 0.00 0.00 41 1013.2
20260502180848 19 0 0.0 0.0 0.00 0.00 0.00 41 1013.1
20260502180348 19 247 0.0 0.0 0.00 0.00 0.00 40 1013.0
20260502170348 21 22 0.0 8.0 0.00 0.00 0.00 36 1012.9
20260502164348 22 202 0.0 8.0 0.00 0.00 0.00 36 1012.7
20260502163848 22 225 0.0 9.7 0.00 0.00 0.00 37 1012.7
20260502163348 22 180 0.0 9.7 0.00 0.00 0.00 35 1012.6
20260502162848 22 180 3.2 8.0 0.00 0.00 0.00 36 1012.6
20260502162348 23 180 6.4 8.0 0.00 0.00 0.00 35 1012.7
20260502161848 23 180 0.0 22.5 0.00 0.00 0.00 35 1012.8
20260502161348 23 202 0.0 12.9 0.00 0.00 0.00 36 1012.7
20260502160848 23 202 0.0 9.7 0.00 0.00 0.00 36 1012.8
20260502160348 23 202 0.0 9.7 0.00 0.00 0.00 35 1012.9
20260502151848 23 135 6.4 14.5 0.00 0.00 0.00 36 1013.0
20260502151348 23 135 0.0 0.0 0.00 0.00 0.00 37 1013.0
20260502150848 22 45 0.0 0.0 0.00 0.00 0.00 38 1013.0
20260502150348 22 0 0.0 0.0 0.00 0.00 0.00 39 1013.1
20260502130348 22 292 1.6 1.6 0.00 0.00 0.00 39 1014.7
20260502123348 21 0 0.0 3.2 0.00 0.00 0.00 39 1015.0
20260502122848 22 22 0.0 0.0 0.00 0.00 0.00 41 1015.1
20260502122445 21 337 0.0 0.0 0.00 0.00 0.00 42 1015.2
20260502122348 21 337 0.0 0.0 0.00 0.00 0.00 42 1015.2
20260502121848 21 315 0.0 0.0 0.00 0.00 0.00 40 1015.3
20260502121348 21 315 0.0 4.8 0.00 0.00 0.00 41 1015.6
20260502120848 21 270 0.0 0.0 0.00 0.00 0.00 41 1015.6
20260502120348 21 292 0.0 0.0 0.00 0.00 0.00 42 1015.6
20260502115848 20 315 0.0 0.0 0.00 0.00 0.00 42 1015.7
20260502115348 20 292 0.0 9.7 0.00 0.00 0.00 41 1015.8
20260502114848 20 270 0.0 0.0 0.00 0.00 0.00 42 1015.9
20260502114349 20 270 0.0 0.0 0.00 0.00 0.00 42 1016.0
20260502113848 19 292 0.0 9.7 0.00 0.00 0.00 42 1016.0
20260502113348 20 292 0.0 6.4 0.00 0.00 0.00 41 1016.0
20260502112848 19 270 0.0 9.7 0.00 0.00 0.00 42 1016.2
20260502112348 20 315 0.0 9.7 0.00 0.00 0.00 41 1016.3
20260502111848 20 270 0.0 0.0 0.00 0.00 0.00 43 1016.3
20260502111348 19 315 3.2 3.2 0.00 0.00 0.00 43 1016.6
20260502110848 19 337 0.0 1.6 0.00 0.00 0.00 42 1016.7
20260502110348 18 315 0.0 4.8 0.00 0.00 0.00 43 1016.7
20260502105848 18 292 0.0 3.2 0.00 0.00 0.00 43 1016.8
20260502105348 19 270 0.0 4.8 0.00 0.00 0.00 43 1016.9
20260502104848 19 292 0.0 6.4 0.00 0.00 0.00 45 1016.9
20260502104348 18 292 0.0 6.4 0.00 0.00 0.00 45 1017.0
20260502103848 18 337 0.0 0.0 0.00 0.00 0.00 45 1017.2
20260502103348 18 270 0.0 0.0 0.00 0.00 0.00 46 1017.3
20260502102848 18 292 0.0 0.0 0.00 0.00 0.00 47 1017.5
20260502102420 18 292 0.0 4.8 0.00 0.00 0.00 45 1017.4
20260502102348 18 292 0.0 4.8 0.00 0.00 0.00 45 1017.4
20260502101848 18 337 4.8 9.7 0.00 0.00 0.00 46 1017.4
20260502101348 18 315 0.0 0.0 0.00 0.00 0.00 48 1017.5
20260502100848 17 337 0.0 4.8 0.00 0.00 0.00 48 1017.7
20260502100348 17 180 0.0 0.0 0.00 0.00 0.00 49 1017.7
20260502091348 15 292 0.0 9.7 0.00 0.00 0.00 51 1018.6
20260502090848 15 315 0.0 4.8 0.00 0.00 0.00 54 1018.7
20260502090348 15 315 4.8 8.0 0.00 0.00 0.00 53 1018.7
20260502071349 11 315 0.0 0.0 0.00 0.00 0.00 67 1020.0
20260502070849 11 337 0.0 0.0 0.00 0.00 0.00 66 1020.0
20260502070349 11 45 0.0 0.0 0.00 0.00 0.00 68 1020.1
20260502065849 11 45 0.0 0.0 0.00 0.00 0.00 68 1020.2
20260502065349 11 67 0.0 0.0 0.00 0.00 0.00 69 1020.2
20260502064849 11 22 0.0 0.0 0.00 0.00 0.00 70 1020.2
20260502064349 11 45 0.0 0.0 0.00 0.00 0.00 70 1020.1
20260502063849 10 45 0.0 0.0 0.00 0.00 0.00 71 1020.1
20260502063349 10 45 0.0 0.0 0.00 0.00 0.00 72 1020.2
20260502062849 10 45 0.0 0.0 0.00 0.00 0.00 72 1020.3
20260502062349 10 45 0.0 0.0 0.00 0.00 0.00 73 1020.3
20260502061849 10 45 0.0 0.0 0.00 0.00 0.00 73 1020.2
20260502061349 10 45 0.0 0.0 0.00 0.00 0.00 74 1020.4
20260502060849 10 67 0.0 0.0 0.00 0.00 0.00 74 1020.5
20260502060421 9 67 0.0 0.0 0.00 0.00 0.00 74 1020.5
20260502060349 9 67 0.0 0.0 0.00 0.00 0.00 74 1020.5
20260502055849 9 67 0.0 0.0 0.00 0.00 0.00 74 1020.6
20260502055349 9 67 0.0 0.0 0.00 0.00 0.00 74 1020.6
20260502054849 8 67 0.0 0.0 0.00 0.00 0.00 74 1020.6
20260502054349 -30 67 0.0 0.0 0.00 0.00 0.00 74 1020.7
20260502053849 8 67 0.0 0.0 0.00 0.00 0.00 74 1020.7
20260502053349 8 67 0.0 0.0 0.00 0.00 0.00 74 1020.8
20260502052849 8 67 0.0 0.0 0.00 0.00 0.00 74 1020.7
20260502052349 8 90 0.0 0.0 0.00 0.00 0.00 74 1020.8
20260502051849 7 90 0.0 0.0 0.00 0.00 0.00 74 1020.7
20260502051349 7 90 0.0 0.0 0.00 0.00 0.00 74 1020.8
20260502050849 7 90 0.0 0.0 0.00 0.00 0.00 74 1020.7
20260502050349 7 90 0.0 0.0 0.00 0.00 0.00 74 1020.7
20260502045849 6 90 0.0 0.0 0.00 0.00 0.00 74 1020.7
20260502045349 6 90 0.0 0.0 0.00 0.00 0.00 74 1020.6
20260502044849 6 90 0.0 0.0 0.00 0.00 0.00 74 1020.6
20260502044349 6 90 0.0 0.0 0.00 0.00 0.00 74 1020.6
20260502043849 5 90 0.0 0.0 0.00 0.00 0.00 74 1020.6
20260502043349 5 90 0.0 0.0 0.00 0.00 0.00 74 1020.6
20260502042849 5 90 0.0 0.0 0.00 0.00 0.00 73 1020.5
20260502042349 5 90 0.0 0.0 0.00 0.00 0.00 73 1020.5
20260502041849 5 90 0.0 0.0 0.00 0.00 0.00 73 1020.4
20260502041349 5 90 0.0 0.0 0.00 0.00 0.00 73 1020.5
20260502040849 5 90 0.0 0.0 0.00 0.00 0.00 73 1020.5
20260502040349 5 90 0.0 0.0 0.00 0.00 0.00 73 1020.3
20260502035849 5 90 0.0 0.0 0.00 0.00 0.00 73 1020.3
20260502035349 5 90 0.0 0.0 0.00 0.00 0.00 73 1020.3
20260502034849 5 90 0.0 0.0 0.00 0.00 0.00 73 1020.4
20260502034349 5 90 0.0 0.0 0.00 0.00 0.00 73 1020.3
20260502033849 5 90 0.0 0.0 0.00 0.00 0.00 73 1020.3
20260502033349 5 90 0.0 0.0 0.00 0.00 0.00 73 1020.3
20260502032849 5 90 0.0 0.0 0.00 0.00 0.00 73 1020.4
20260502032349 5 90 0.0 0.0 0.00 0.00 0.00 73 1020.3
20260502031849 5 90 0.0 0.0 0.00 0.00 0.00 73 1020.3
20260502031349 5 90 0.0 0.0 0.00 0.00 0.00 72 1020.2
20260502030849 5 90 0.0 0.0 0.00 0.00 0.00 72 1020.2
20260502030349 5 90 0.0 0.0 0.00 0.00 0.00 72 1020.2
20260502025849 5 90 0.0 0.0 0.00 0.00 0.00 72 1020.3
20260502025349 5 90 0.0 0.0 0.00 0.00 0.00 71 1020.2
20260502024849 5 90 0.0 0.0 0.00 0.00 0.00 70 1020.2
20260502024349 5 112 0.0 0.0 0.00 0.00 0.00 70 1020.3
20260502023849 5 112 0.0 0.0 0.00 0.00 0.00 70 1020.2
20260502023349 5 112 0.0 0.0 0.00 0.00 0.00 70 1020.2
20260502022849 6 90 0.0 0.0 0.00 0.00 0.00 70 1020.2
20260502022349 6 112 0.0 0.0 0.00 0.00 0.00 70 1020.3
20260502021849 6 112 0.0 0.0 0.00 0.00 0.00 70 1020.2
20260502021349 6 90 0.0 0.0 0.00 0.00 0.00 69 1020.2
20260502020849 6 90 0.0 0.0 0.00 0.00 0.00 69 1020.3
20260502020349 6 90 0.0 0.0 0.00 0.00 0.00 70 1020.3
20260502015849 6 90 0.0 0.0 0.00 0.00 0.00 69 1020.2
20260502015349 6 90 0.0 0.0 0.00 0.00 0.00 69 1020.2
20260502014849 6 90 0.0 0.0 0.00 0.00 0.00 68 1020.3
20260502014349 6 90 0.0 0.0 0.00 0.00 0.00 68 1020.2
20260502013849 7 90 0.0 0.0 0.00 0.00 0.00 68 1020.2
20260502013349 7 90 0.0 0.0 0.00 0.00 0.00 68 1020.2
20260502012849 7 90 0.0 0.0 0.00 0.00 0.00 68 1020.3
20260502012349 7 90 0.0 0.0 0.00 0.00 0.00 68 1020.2
20260502011849 7 90 0.0 0.0 0.00 0.00 0.00 68 1020.2
20260502011349 7 90 0.0 0.0 0.00 0.00 0.00 67 1020.2
20260502010849 7 90 0.0 0.0 0.00 0.00 0.00 68 1020.2
20260502010349 7 90 0.0 0.0 0.00 0.00 0.00 68 1020.2
20260502005849 7 90 0.0 0.0 0.00 0.00 0.00 68 1020.3
20260502005349 7 90 0.0 0.0 0.00 0.00 0.00 68 1020.2
20260502004849 7 90 0.0 0.0 0.00 0.00 0.00 68 1020.2
20260502004349 7 90 0.0 0.0 0.00 0.00 0.00 68 1020.2
20260502003849 7 90 0.0 0.0 0.00 0.00 0.00 67 1020.4
20260502003349 7 90 0.0 0.0 0.00 0.00 0.00 66 1020.3
20260502002849 7 90 0.0 0.0 0.00 0.00 0.00 66 1020.4
20260502002349 7 90 0.0 0.0 0.00 0.00 0.00 66 1020.3
20260502001849 7 90 0.0 0.0 0.00 0.00 0.00 66 1020.3
20260502001350 7 90 0.0 0.0 0.00 0.00 0.00 66 1020.3
20260502000849 7 90 0.0 0.0 0.00 0.00 0.00 67 1020.3
20260502000349 6 90 0.0 0.0 0.00 0.00 0.00 67 1020.3
20260501235849 6 90 0.0 0.0 0.00 0.00 0.00 67 1020.3
20260501235349 7 90 0.0 0.0 0.00 0.00 0.00 67 1020.3
20260501234849 7 135 0.0 0.0 0.00 0.00 0.00 65 1020.4
20260501234349 7 135 0.0 0.0 0.00 0.00 0.00 64 1020.5
20260501233849 7 135 0.0 0.0 0.00 0.00 0.00 64 1020.4
20260501233349 7 135 0.0 0.0 0.00 0.00 0.00 64 1020.3
20260501232849 7 135 0.0 0.0 0.00 0.00 0.00 64 1020.3
20260501232349 7 90 0.0 0.0 0.00 0.00 0.00 65 1020.2
20260501231849 7 67 0.0 0.0 0.00 0.00 0.00 65 1020.2
20260501231349 7 67 0.0 0.0 0.00 0.00 0.00 64 1020.2
20260501230849 8 67 0.0 0.0 0.00 0.00 0.00 63 1020.2
20260501230349 8 67 0.0 0.0 0.00 0.00 0.00 61 1020.1
20260501225849 8 67 0.0 0.0 0.00 0.00 0.00 61 1020.1
20260501225349 8 67 0.0 0.0 0.00 0.00 0.00 61 1020.0
20260501224849 8 67 0.0 0.0 0.00 0.00 0.00 60 1020.1
20260501224349 8 67 0.0 0.0 0.00 0.00 0.00 60 1020.2
20260501223850 8 67 0.0 0.0 0.00 0.00 0.00 60 1020.2
20260501223350 8 67 0.0 0.0 0.00 0.00 0.00 60 1020.0
20260501222850 8 67 0.0 0.0 0.00 0.00 0.00 60 1020.0
20260501222350 8 67 0.0 0.0 0.00 0.00 0.00 59 1019.9
20260501221850 8 67 0.0 0.0 0.00 0.00 0.00 60 1019.8
20260501221351 9 67 0.0 0.0 0.00 0.00 0.00 59 1019.9
20260501220850 9 67 0.0 0.0 0.00 0.00 0.00 58 1019.9
20260501220350 9 67 0.0 0.0 0.00 0.00 0.00 58 1019.9
20260501215850 -17 67 0.0 0.0 0.00 0.00 0.00 1019.9
20260501215350 9 67 0.0 0.0 0.00 0.00 0.00 58 1019.6
20260501214850 9 67 0.0 0.0 0.00 0.00 0.00 57 1019.6
20260501214350 10 67 0.0 0.0 0.00 0.00 0.00 56 1019.5
20260501213850 10 67 0.0 0.0 0.00 0.00 0.00 56 1019.5
20260501213350 10 67 0.0 0.0 0.00 0.00 0.00 55 1019.5
20260501212850 10 67 0.0 0.0 0.00 0.00 0.00 55 1019.4
20260501212350 10 67 0.0 0.0 0.00 0.00 0.00 55 1019.4
20260501211850 10 67 0.0 0.0 0.00 0.00 0.00 55 1019.4
20260501211350 11 67 0.0 0.0 0.00 0.00 0.00 56 1019.2
20260501210850 11 67 0.0 0.0 0.00 0.00 0.00 55 1019.2
20260501210350 11 67 0.0 0.0 0.00 0.00 0.00 56 1019.2
20260501205850 11 45 0.0 0.0 0.00 0.00 0.00 55 1019.2
20260501205350 11 45 0.0 0.0 0.00 0.00 0.00 55 1019.2
20260501204850 11 45 0.0 0.0 0.00 0.00 0.00 56 1019.1
20260501204350 11 45 0.0 0.0 0.00 0.00 0.00 53 1019.0
20260501203850 11 45 0.0 0.0 0.00 0.00 0.00 52 1019.0
20260501203350 11 45 0.0 0.0 0.00 0.00 0.00 52 1018.9
20260501202850 12 45 0.0 0.0 0.00 0.00 0.00 51 1018.9
20260501202350 12 45 0.0 0.0 0.00 0.00 0.00 49 1018.8
20260501201850 12 45 0.0 0.0 0.00 0.00 0.00 48 1018.8
20260501201350 12 45 0.0 0.0 0.00 0.00 0.00 47 1018.9
20260501200850 12 45 0.0 0.0 0.00 0.00 0.00 47 1018.7
20260501200350 12 45 0.0 0.0 0.00 0.00 0.00 47 1018.7